Overview Statistics Trail Chart Weather Telemetry Raw packets
 

This is the latest recevied weather packets stored in our database for station/object K6CED. If no packets are shown the sender has not sent any weather packets the latest 10 day(s).

<< 52 53 54 55 56 57 58 >>
Time Temp. Humidity Pressure Rain* Wind** Luminosity Snow
1788315600 23.89° C 48% 1016.4 hPa 0 mm - 2 W/m² -
1788315294 23.89° C 46% 1016.3 hPa 0 mm - 4 W/m² -
1788314989 24.44° C 44% 1016.1 hPa 0 mm - 7 W/m² -
1788314686 25° C 42% 1015.9 hPa 0 mm - 10 W/m² -
1788314381 25° C 41% 1015.8 hPa 0 mm - 13 W/m² -
1788314077 25° C 40% 1015.8 hPa 0 mm - 16 W/m² -
1788313773 25.56° C 40% 1016.1 hPa 0 mm - 19 W/m² -
1788313469 25.56° C 40% 1015.9 hPa 0 mm - 21 W/m² -
1788313168 26.11° C 40% 1016 hPa 0 mm - 29 W/m² -
1788312864 26.67° C 38% 1016.1 hPa 0 mm - 33 W/m² -
1788312559 26.67° C 37% 1016.1 hPa 0 mm - 37 W/m² -
1788312254 27.22° C 36% 1015.8 hPa 0 mm - 43 W/m² -
1788311949 27.22° C 35% 1016 hPa 0 mm - 52 W/m² -
1788311644 27.78° C 35% 1015.9 hPa 0 mm - 58 W/m² -
1788311339 27.78° C 33% 1016.2 hPa 0 mm - 68 W/m² -
1788311033 27.78° C 34% 1016.3 hPa 0 mm - 79 W/m² -
1788310732 28.33° C 33% 1016 hPa 0 mm - 94 W/m² -
1788310426 28.89° C 31% 1016.2 hPa 0 mm - 107 W/m² -
1788310122 28.89° C 30% 1015.9 hPa 0 mm - 108 W/m² -
1788309816 28.89° C 29% 1015.9 hPa 0 mm - 127 W/m² -
1788309511 28.89° C 30% 1015.9 hPa 0 mm - 146 W/m² -
1788309206 28.89° C 31% 1015.9 hPa 0 mm - 159 W/m² -
1788308902 29.44° C 29% 1016.1 hPa 0 mm - 182 W/m² -
1788308601 28.89° C 28% 1016 hPa 0 mm - 197 W/m² -
1788308297 29.44° C 29% 1016.2 hPa 0 mm - 211 W/m² -

* Rain latest hour (hover to see other rain measurements)
** Current wind speed in m/s (hover to see current wind gust speed)